(2009 XH8) |
Classification: Amor [NEO] SPK-ID: 3483649 |
[ hide orbit diagram ]
For accurate long-term ephemerides, please instead use our Horizons system.This orbit viewer was implemented using two-body methods, and hence should not be used for determining accurate long-term trajectories (over several years or decades) or planetary encounter circumstances.
Orbital Elements at Epoch 2459000.5 (2020-May-31.0) TDB
Reference: JPL 9 (heliocentric ecliptic J2000)
Element | Value | Uncertainty (1-sigma) | Units |
e | .47892247843968 | 0.00010301 | |
a | 2.06719272097019 | 0.00039985 | au |
q | 1.077167659630681 | 4.5971e-06 | au |
i | 4.923951707565012 | 0.00083345 | deg |
node | 79.32315975486003 | 0.0018093 | deg |
peri | 1.52048013926091 | 0.0033958 | deg |
M | 186.272515774775 | 0.40838 | deg |
tp | 2459524.384931871572 (2021-Nov-05.88493187) | 1.3835 | TDB |
period | 1085.600107057682 2.97 | 0.31497 0.0008623 | d yr |
n | .3316138213874291 | 9.6213e-05 | deg/d |
Q | 3.057217782309699 | 0.00059134 | au |
|
| | Orbit Determination Parameters
Additional Information
|
[ show covariance matrix ]
Physical Parameter Table
Parameter |
Symbol |
Value |
Units |
Sigma |
Reference |
Notes |
absolute magnitude |
H |
23.2 |
|
n/a |
MPO172390 |
|
|
[ show close-approach data ]
|